Location: Bagnara
(41.0500°N, 14.7833°E)
Time: 09:52:13
(UTC+00:00)

USA 305 - Pass Details

Date: 20 June 2021
Orbit: 558 x 580 km, 54.0° (Epoch: 13 July)

Event Time Altitude Azimuth Distance (km) Brightness Sun altitude
Exits shadow 01:10:12 30° 268° (W) 1,021 3.9 -19.0°
Maximum altitude 01:11:55 49° 326° (NW) 729 3.5 -18.9°
Drops below altitude 10° 01:16:00 10° 41° (NE) 1,851 6.7 -18.5°
Sets 01:18:19 0° 47° (NE) 2,752 7.9 -18.2°
